This demonstration page uses our WeatherBlox Daily Observations layout. Learn more.

Left ArrowRight Arrow

38.20091, -84.87328

Hourly Observations for January 23, 2015

Temp ( °F °C ) Dew Point ( °F °C ) Humidity (%) Winds ( mph kmh ) Pressure ( in mb ) Visibility ( mi km ) Precip ( " mm )
12:53 am 00:53 Cloudy 34 1.1 25 -3.9 70 70 NNE 5 7 30.37 1029 10 16 0.00 0.00
1:53 am 01:53 Cloudy 33 0.6 25 -3.9 72 72 NNE 6 9 30.35 1028 10 16 0.00 0.00
2:53 am 02:53 Cloudy 33 0.6 25 -3.9 72 72 NE 8 13 30.34 1027 10 16 0.00 0.00
3:53 am 03:53 Cloudy 33 0.6 25 -3.9 72 72 NNE 7 11 30.32 1027 10 16 0.00 0.00
4:53 am 04:53 Cloudy 32 0 25 -3.9 75 75 NE 7 11 30.30 1026 10 16 0.00 0.00
5:13 am 05:13 Partly Cloudy 32 0 25 -3.9 75 75 ENE 5 7 30.33 1027 10 16 0.00 0.00
5:53 am 05:53 Mostly Clear 31 -0.6 25 -3.9 79 79 NE 5 7 30.29 1026 10 16 0.00 0.00
6:53 am 06:53 Clear 31 -0.6 25 -3.9 79 79 NNE 5 7 30.26 1025 10 16 0.00 0.00
7:53 am 07:53 Sunny 31 -0.6 24 -4.4 76 76 NE 5 7 30.25 1024 10 16 0.00 0.00
8:53 am 08:53 Mostly Sunny 31 -0.6 25 -3.9 79 79 NE 3 6 30.24 1024 10 16 0.00 0.00
9:53 am 09:53 Cloudy 32 0 25 -3.9 75 75 NE 8 13 30.21 1023 9 14 0.00 0.00
10:53 am 10:53 Cloudy 34 1.1 25 -3.9 70 70 NNE 6 9 30.18 1022 10 16 0.00 0.00
11:53 am 11:53 Cloudy 34 1.1 25 -3.9 70 70 NE 5 7 30.18 1022 10 16 0.00 0.00
12:53 pm 12:53 Cloudy 35 1.7 26 -3.3 70 70 E 7 11 30.12 1020 10 16 0.00 0.03
1:53 pm 13:53 Cloudy 36 2.2 27 -2.8 70 70 NE 6 9 30.08 1019 8 13 0.00 0.03
2:53 pm 14:53 Cloudy with Haze 36 2.2 28 -2.2 73 73 ENE 6 9 30.04 1017 5 8 0.00 0.03
3:46 pm 15:46 Cloudy with Light Snow 35 1.7 29 -1.7 78 78 ENE 5 7 30.03 1017 2 3 0.00 0.03
3:53 pm 15:53 Cloudy with Light Snow 35 1.7 29 -1.7 78 78 ENE 5 7 30.02 1017 2 3 0.00 0.03
4:03 pm 16:03 Cloudy with Light Snow 35 1.7 29 -1.7 78 78 NNE 5 7 30.03 1017 2 3 0.00 0.03
4:53 pm 16:53 Cloudy with Light Snow 33 0.6 30 -1.1 89 89 NNE 3 6 30.00 1016 2 2 0.01 0.25
5:04 pm 17:04 Cloudy with Light Snow 33 0.6 30 -1.1 89 89 N 3 6 30.00 1016 2 3 0.00 0.03
5:11 pm 17:11 Cloudy with Light Snow 33 0.6 30 -1.1 89 89 Calm 30.00 1016 1 2 0.01 0.25
5:20 pm 17:20 Cloudy with Light Snow 33 0.6 30 -1.1 89 89 NNE 5 7 30.00 1016 1 1 0.01 0.25
5:30 pm 17:30 Cloudy with Light Snow 33 0.6 30 -1.1 89 89 N 3 6 30.00 1016 1 2 0.02 0.51
5:42 pm 17:42 Cloudy with Light Snow 33 0.6 30 -1.1 89 89 N 5 7 30.00 1016 1 2 0.02 0.51
5:49 pm 17:49 Cloudy with Light Snow 34 1 30 -1 87 87 N 5 7 30.00 1016 2 2 0.03 0.76
5:53 pm 17:53 Cloudy with Light Snow 33 0.6 30 -1.1 89 89 NNW 5 7 30.00 1016 2 2 0.03 0.76
6:07 pm 18:07 Cloudy with Light Snow 32 0 31 -0.6 96 96 N 3 6 30.00 1016 1 2 0.02 0.51
6:13 pm 18:13 Cloudy with Light Snow 32 0 31 -0.6 96 96 N 3 6 30.00 1016 1 1 0.03 0.76
6:22 pm 18:22 Mostly Cloudy with Light Snow 32 0 31 -0.6 96 96 N 3 6 30.00 1016 1 1 0.04 1.02
6:41 pm 18:41 Cloudy with Light Snow 32 0 31 -0.6 96 96 N 5 7 30.00 1016 1 2 0.06 1.52
6:53 pm 18:53 Cloudy with Light Snow 32 0 31 -0.6 96 96 N 6 9 29.99 1016 1 2 0.07 1.78
7:05 pm 19:05 Cloudy with Light Snow 32 0 31 -0.6 96 96 N 5 7 30.00 1016 1 2 0.01 0.25
7:15 pm 19:15 Cloudy with Light Snow 32 0 31 -0.6 96 96 N 5 7 30.00 1016 2 2 0.02 0.51
7:33 pm 19:33 Cloudy with Light Snow 32 0 31 -0.6 96 96 N 5 7 30.00 1016 1 2 0.03 0.76
7:53 pm 19:53 Cloudy with Light Snow 32 0 31 -0.6 96 96 N 5 7 29.97 1015 1 2 0.05 1.27
8:03 pm 20:03 Cloudy with Light Snow 32 0 31 -0.6 96 96 N 5 7 29.97 1015 1 1 0.01 0.25
8:19 pm 20:19 Cloudy with Light Snow 32 0 31 -0.6 96 96 NNE 3 6 29.97 1015 1 2 0.03 0.76
8:53 pm 20:53 Cloudy with Light Snow 32 0 30 -1.1 92 92 NNW 3 6 29.94 1014 1 2 0.06 1.52
9:20 pm 21:20 Cloudy with Light Snow 32 0 30 -1.1 92 92 N 3 6 29.94 1014 1 2 0.02 0.51
9:31 pm 21:31 Cloudy with Light Snow 32 0 31 -0.6 96 96 N 3 6 29.94 1014 1 2 0.03 0.76
9:36 pm 21:36 Cloudy with Light Snow 32 0 30 -1.1 92 92 N 3 6 29.94 1014 1 2 0.03 0.76
9:51 pm 21:51 Cloudy with Light Snow 32 0 30 -1 93 93 Calm 29.94 1014 2 3 0.03 0.76
9:53 pm 21:53 Cloudy with Light Snow 32 0 30 -1.1 92 92 Calm 29.92 1013 2 3 0.04 1.02
9:57 pm 21:57 Cloudy with Light Snow 32 0 30 -1.1 92 92 Calm 29.94 1014 2 3 0.00 0.03
10:11 pm 22:11 Cloudy with Light Snow 32 0 30 -1.1 92 92 NW 3 6 29.94 1014 1 1 0.01 0.25
10:20 pm 22:20 Cloudy with Light Snow 32 0 30 -1.1 92 92 NW 3 6 29.94 1014 1 2 0.02 0.51
10:28 pm 22:28 Cloudy with Light Snow 32 0 30 -1.1 92 92 NNW 5 7 29.94 1014 1 2 0.02 0.51
10:53 pm 22:53 Cloudy with Light Snow 32 0 30 -1.1 92 92 WNW 5 7 29.91 1013 2 2 0.03 0.76
11:20 pm 23:20 Cloudy with Light Snow 32 0 30 -1.1 92 92 NW 3 6 29.91 1013 2 2 0.00 0.03
11:33 pm 23:33 Cloudy with Light Snow 32 0 30 -1.1 92 92 N 5 7 29.91 1013 1 2 0.01 0.25
11:43 pm 23:43 Cloudy with Light Snow 32 0 30 -1.1 92 92 Calm 29.91 1013 1 1 0.02 0.51
11:53 pm 23:53 Cloudy with Light Snow 32 0 30 -1.1 92 92 N 3 6 29.88 1012 1 2 0.03 0.76
11:58 pm 23:58 Cloudy with Light Snow 32 0 30 -1.1 92 92 Calm 29.91 1013 1 2 0.00 0.03

Powered by AerisWeather